CAPE
0 0 0 0 0 0 0 0 0 0 0 0 0 0 0 0 0 0 0 0 0 0 0 0 0 0 0 0 0 0 0 1 34 94 172 324 352 301 260 185 45 33 5
0 0 0 0 0 0 0 0 0 0 0 0 0 0 0 0 0 0 0 0 0 0 0 0 0 0 0 0 0 0 0 0 0 0 100 199 493 220 91 66 33 1 0
0 0 0 0 0 0 0 0 0 0 0 0 0 0 0 0 0 0 0 0 0 0 0 0 0 0 0 0 0 0 0 0 0 0 0 46 248 335 125 47 4 0 0
4 12 5 0 0 0 0 0 0 0 0 0 0 0 0 0 0 0 0 0 0 0 0 0 0 0 0 0 0 0 0 0 0 0 0 0 123 191 159 73 9 0 1
0 14 14 0 0 0 0 0 0 0 0 0 0 0 0 0 0 0 0 0 0 0 0 0 0 0 0 0 0 0 0 0 0 0 0 0 0 102 118 26 14 0 1
0 0 0 0 0 0 0 0 0 0 0 0 0 0 0 0 0 0 0 0 0 0 0 0 0 0 0 0 0 0 0 0 0 0 0 0 0 0 39 26 9 0 0
0 0 0 0 0 0 0 0 0 0 0 0 0 0 0 0 0 0 0 0 1 0 0 0 0 0 0 0 0 0 0 0 4 5 0 0 0 0 16 18 0 0 0
0 0 0 0 0 0 0 0 0 0 0 0 0 0 0 0 0 0 0 0 1 0 0 0 0 1 0 1 1 0 0 0 0 0 0 0 0 0 18 3 0 0 1
0 0 0 0 0 0 0 0 0 0 0 0 0 0 0 0 0 0 0 0 0 0 0 0 0 0 0 0 0 0 0 0 0 0 0 0 0 0 0 0 0 0 16
0 0 0 0 0 0 0 0 0 0 0 0 0 0 0 0 0 1 1 1 1 0 0 0 0 0 0 0 0 0 0 0 0 0 0 0 0 0 0 0 0 0 0
0 0 0 0 0 0 0 0 0 0 0 0 1 1 0 0 0 1 3 3 0 0 0 0 0 0 0 0 0 0 0 0 0 0 0 0 0 0 0 0 0 0 0
0 0 0 0 0 0 0 0 0 1 1 0 0 0 0 0 0 0 2 1 1 0 0 0 2 0 0 0 0 0 0 0 0 0 0 0 0 0 0 0 0 7 6
0 0 0 0 0 0 0 1 0 0 0 0 0 0 0 0 0 0 0 3 3 2 0 0 5 0 0 0 0 0 0 0 0 0 0 0 0 0 0 0 0 0 0
0 0 0 0 0 0 0 0 0 0 0 0 0 0 0 0 1 5 0 0 0 0 0 1 0 0 0 0 0 0 0 0 0 0 0 0 0 0 0 0 0 0 0
0 0 0 0 0 0 0 0 1 1 1 2 1 0 0 0 0 1 1 0 0 0 0 0 0 0 0 0 0 0 0 1 1 0 0 0 0 0 0 0 0 0 0
0 0 1 2 2 1 0 2 3 2 2 0 0 0 0 0 0 0 0 1 0 0 0 0 0 0 1 0 0 0 0 0 0 0 0 0 0 0 0 0 0 0 0
0 0 0 0 0 0 0 1 0 0 1 3 1 1 0 0 0 0 0 0 0 0 0 0 0 1 1 0 0 0 0 0 0 0 0 1 0 0 0 0 0 0 0
0 0 0 0 0 0 0 1 1 3 3 2 3 3 1 1 0 0 0 0 0 0 0 0 1 1 1 0 0 0 0 0 0 0 0 0 0 0 1 1 0 1 0
0 0 0 1 2 1 1 1 2 2 2 2 2 2 3 2 1 0 0 2 2 2 2 2 1 0 1 0 0 0 0 0 0 0 0 0 2 1 1 6 0 0 0
0 0 0 1 1 1 2 1 1 2 2 2 1 1 1 3 1 1 0 1 1 0 2 5 1 0 0 0 1 0 0 0 0 0 0 0 0 0 0 0 0 0 0
0 0 1 1 1 1 2 1 0 2 2 2 1 2 0 0 1 1 1 0 3 1 0 0 1 3 6 2 2 0 0 0 0 0 0 0 0 0 0 0 0 0 0
1 4 6 4 1 0 0 1 0 1 1 1 1 0 0 0 1 1 1 1 1 2 7 1 2 2 2 2 1 0 0 0 0 0 0 0 0 0 5 0 0 0 0
0 0 0 0 1 0 0 1 1 1 1 1 1 0 0 0 0 0 0 2 1 2 3 8 9 1 0 4 1 1 1 0 0 3 2 1 0 6 0 0 0 5 0
3 2 0 0 0 1 2 1 1 1 1 1 1 0 0 0 0 0 0 2 2 1 1 2 5 5 3 2 1 2 0 0 1 0 0 6 1 0 0 0 0 0 0
2 4 0 0 0 0 1 2 2 2 1 1 0 0 0 0 0 0 0 1 2 2 2 2 1 3 6 4 1 0 4 1 0 0 1 7 1 0 0 1 0 8 7
0 0 0 0 0 0 2 2 1 1 1 1 0 0 0 0 0 0 0 1 1 1 2 1 0 0 2 5 1 1 1 0 0 0 2 3 1 0 0 6 8 3 0
CIN
0 0 0 0 0 0 0 0 0 0 0 0 0 0 0 0 0 0 0 0 0 0 0 0 0 0 0 0 0 0 0 -74 -105 -76 -24 -16 -46 -95 -109 -127 -217 -182 -183
0 0 0 0 0 0 0 0 0 0 0 0 0 0 0 0 0 0 0 0 0 0 0 0 0 0 0 0 0 0 0 0 0 -10 -68 -5 -18 -69 -143 -144 -190 -207 0
0 0 0 0 0 0 0 0 0 0 0 0 0 0 0 0 0 0 0 0 0 0 0 0 0 0 0 0 0 0 0 0 0 0 0 -29 -6 -15 -73 -124 -38 0 0
-38 -42 -26 0 0 0 0 0 0 0 0 0 0 0 0 0 0 0 0 0 0 0 0 0 0 0 0 0 0 0 0 0 0 0 0 0 -9 -11 -27 -59 -70 0 0
-1 -44 -44 -21 0 0 0 0 0 0 0 0 0 0 0 0 0 0 0 0 0 0 0 0 0 0 0 0 0 0 0 0 0 0 0 0 0 -5 -8 -70 -78 0 0
0 0 0 0 0 0 0 0 0 0 0 0 0 0 0 0 0 0 0 0 0 0 0 0 0 0 0 0 0 0 0 0 0 0 0 0 0 0 -11 -19 -59 0 0
0 0 0 0 0 0 0 0 0 0 0 0 0 0 0 0 0 0 0 0 -7 0 0 0 0 0 0 0 0 0 0 0 -8 -17 0 0 0 0 -4 -23 -10 0 -3
0 0 0 0 0 0 0 0 0 0 0 0 0 0 0 0 0 0 0 0 -1 0 0 0 -3 -5 -7 -8 -14 0 0 -5 0 0 0 0 0 0 -7 -2 0 0 -3
0 0 0 0 0 0 0 0 0 0 0 0 0 0 0 0 0 0 -4 -1 0 0 0 0 0 0 0 0 0 0 0 0 0 0 0 0 0 0 0 0 0 0 -1
0 0 0 0 0 0 0 0 0 0 0 0 0 0 0 0 -1 -4 -3 -5 -4 0 0 0 0 0 0 0 0 0 0 0 0 0 0 0 0 0 0 0 0 0 0
0 0 0 0 0 0 0 0 0 0 0 0 -3 -1 0 0 -1 -5 -3 -6 -1 0 0 0 0 0 0 0 0 0 0 0 0 0 0 0 0 0 0 0 0 0 0
0 0 0 0 0 0 0 0 0 -1 -1 -2 -1 -3 0 0 -1 -1 -6 -8 -6 -4 0 0 -4 -3 0 0 0 0 0 0 0 0 0 0 0 0 0 0 0 -28 -18
0 0 0 0 0 0 0 -8 0 0 -1 0 0 -1 -1 -1 0 0 -5 -4 -12 -14 0 -2 -8 -11 0 0 0 0 0 0 0 0 0 0 0 0 0 0 0 0 0
0 0 0 0 0 0 0 0 -1 0 0 0 0 0 -3 0 -3 -9 -4 0 0 0 0 -6 0 0 0 -1 -1 0 0 0 0 0 0 0 0 0 0 0 0 0 0
0 0 0 0 0 0 0 -4 -5 -4 -3 -4 -7 0 0 0 0 -5 -4 -4 -1 -1 0 0 0 0 0 0 0 0 0 -2 -8 0 -3 0 0 0 0 0 0 0 0
0 0 -9 -10 -10 -7 -10 -9 -9 -5 -7 -2 0 0 0 0 0 0 -9 -14 -10 -3 0 0 0 -2 -1 -1 0 0 0 0 -1 -7 0 0 0 0 0 0 0 0 -2
0 0 0 0 0 0 0 0 0 0 -3 -3 -3 -2 0 0 0 0 0 0 -14 0 0 0 0 -1 -1 -1 -2 0 0 0 0 0 0 -3 0 -8 0 0 0 0 -7
0 0 0 0 0 -1 0 0 0 0 0 0 0 0 -1 0 0 -1 0 0 0 0 0 0 0 0 0 0 0 0 0 0 0 0 0 -1 -6 -7 -4 -3 -1 -5 0
0 0 -4 -3 0 0 0 0 0 0 0 0 0 0 0 0 0 0 0 0 0 -1 0 0 0 0 0 0 0 0 -1 0 -6 -2 -2 -1 -4 -4 -10 -3 0 0 0
0 -2 -8 -2 -1 0 0 0 0 0 0 0 0 0 0 0 0 0 0 0 0 0 0 0 0 0 0 0 0 -1 0 0 -1 0 -2 0 0 0 0 0 0 0 0
-5 -7 -7 -2 0 0 0 -2 0 0 0 0 0 -1 0 0 0 0 0 0 0 0 0 0 0 0 0 0 0 0 0 0 0 0 0 0 0 0 0 0 0 0 0
-12 -13 -8 -5 -1 0 0 0 0 0 0 0 0 0 -1 0 0 0 0 0 0 0 0 -1 0 0 0 0 0 0 0 0 0 0 0 0 0 -1 -2 0 0 0 0
-9 0 -1 0 -2 -1 -1 0 0 0 0 0 0 0 0 0 0 0 0 0 0 0 -1 0 0 0 0 0 0 0 0 0 0 0 -1 -5 0 -1 -5 0 0 0 0
-11 -6 0 0 -1 -1 0 0 0 0 0 0 0 0 0 0 0 0 0 0 0 0 0 0 0 0 0 0 0 0 0 0 0 0 -1 0 -1 -1 -1 0 0 0 0
-7 -7 0 0 0 0 0 0 0 0 0 0 0 0 0 0 0 0 0 0 0 0 0 0 0 0 0 0 0 0 0 0 0 0 0 -1 -2 0 0 -1 0 -4 -1
0 0 0 0 0 0 0 0 0 0 0 0 0 0 0 0 0 0 0 0 0 0 0 0 0 0 0 0 0 0 0 0 0 0 -2 -1 -1 0 0 0 0 -2 0
Wind_Speed
8 9 10 11 13 14 16 17 20 22 25 27 30 32 33 32 31 32 32 31 32 30 29 31 31 32 32 31 29 27 27 26 28 28 27 21 16 9 10 7 7 5 4
6 8 9 10 12 14 16 18 21 24 26 29 31 32 33 33 34 33 32 31 30 31 32 33 33 33 33 33 32 31 30 27 27 30 28 27 21 15 14 10 7 7 5
4 5 8 9 11 14 16 19 22 25 28 30 33 33 33 34 34 34 29 30 31 32 34 35 36 34 34 33 33 33 32 30 28 26 29 27 23 18 17 16 13 10 8
2 3 7 10 12 15 17 20 23 26 29 32 33 33 35 35 36 29 30 31 32 34 36 36 36 34 34 34 35 35 33 31 29 25 28 28 25 23 19 18 16 15 12
2 6 8 10 13 16 19 22 24 27 29 31 34 35 35 36 31 32 32 32 34 36 38 38 35 35 36 35 33 34 34 32 30 27 26 28 26 24 24 20 20 19 17
2 5 9 12 16 20 22 24 25 27 30 31 33 35 36 35 32 31 31 32 36 39 40 37 36 36 34 34 33 32 30 29 30 28 26 29 27 27 23 23 21 21 23
6 9 13 16 20 22 24 27 29 30 30 32 33 35 37 37 29 31 33 36 38 39 37 36 36 34 35 34 34 32 30 28 26 27 32 30 32 28 26 24 21 23 23
11 14 18 20 23 25 28 30 32 32 31 33 34 36 35 34 32 34 35 37 36 36 34 34 34 34 32 32 33 32 30 29 28 27 28 32 32 32 28 25 24 26 27
15 19 22 24 25 28 31 33 34 33 34 35 35 35 36 36 36 36 36 32 31 32 32 29 29 29 30 31 31 31 32 32 31 31 31 33 35 37 34 32 31 29 29
19 22 24 25 28 32 33 34 34 35 36 37 37 35 34 34 33 31 30 29 28 30 29 31 27 27 30 31 30 31 33 33 35 36 37 37 35 36 35 33 34 32 30
22 24 26 28 30 31 32 33 35 36 36 36 36 34 33 31 29 28 27 25 27 29 31 33 29 29 33 33 33 34 36 37 38 38 37 37 36 36 33 31 31 31 33
24 27 29 31 32 33 32 34 33 35 36 36 36 34 31 31 30 30 25 24 25 29 30 30 31 33 36 35 35 36 37 37 37 38 39 38 37 35 33 33 29 29 31
27 29 32 33 33 32 34 35 37 36 35 35 35 35 35 32 31 30 31 29 29 29 28 28 32 33 33 36 39 40 39 37 37 37 36 36 34 33 34 35 35 32 31
29 31 32 33 36 37 36 36 37 36 36 36 37 37 36 35 34 33 30 31 33 33 32 29 30 34 37 41 39 37 35 32 31 33 34 33 33 33 33 32 33 31 32
31 32 34 34 35 36 35 35 35 34 33 36 36 36 38 37 35 35 37 38 37 34 33 34 35 36 36 35 35 35 34 33 30 29 30 32 32 31 31 31 31 32 34
32 33 34 35 35 35 36 35 32 32 34 35 35 35 33 33 35 38 40 41 39 37 34 34 34 32 35 35 34 34 33 33 31 29 30 30 31 31 31 31 31 31 32
33 34 34 35 36 36 35 36 38 34 30 30 30 31 32 35 38 43 43 42 40 37 35 35 33 30 28 27 29 31 33 32 32 31 29 30 30 30 30 31 32 32 32
33 33 34 35 35 34 33 29 20 18 23 28 27 26 25 23 29 40 40 39 36 32 30 31 32 31 27 23 22 26 29 29 31 32 31 31 30 29 30 30 30 30 31
34 33 34 33 33 36 37 31 29 32 27 26 29 28 29 26 19 16 38 36 35 34 32 30 28 27 24 20 19 25 27 27 28 29 29 29 28 28 30 29 30 30 29
33 33 34 32 35 36 35 36 36 31 25 21 12 10 9 9 8 7 7 15 34 34 34 32 30 27 26 26 25 25 30 28 29 29 29 30 30 30 31 29 31 31 30
33 33 35 34 35 36 37 37 39 33 24 19 16 17 13 14 10 10 10 17 35 32 33 32 33 32 29 28 28 26 27 27 28 28 29 30 29 30 30 29 30 31 32
33 33 35 36 35 37 38 38 40 30 26 28 24 15 14 16 15 16 15 15 14 31 33 30 30 31 31 30 28 27 27 29 26 27 27 27 27 28 27 28 30 31 30
31 34 37 38 38 38 38 37 40 33 30 18 17 11 20 21 17 12 13 10 9 7 31 31 30 30 30 29 28 27 28 28 26 26 27 26 26 25 25 27 29 30 31
33 34 37 39 39 38 37 37 40 34 13 11 10 11 14 14 14 10 11 13 14 15 27 31 31 31 30 29 27 26 28 27 29 27 27 24 22 24 27 29 31 30 33
34 35 38 40 39 38 38 37 36 26 17 13 10 10 11 11 11 13 14 16 16 13 13 31 31 31 30 30 28 27 27 28 27 28 26 23 27 28 29 31 29 29 33
34 35 38 40 40 38 37 34 31 30 25 18 11 10 11 11 11 12 12 12 14 14 8 7 29 30 29 27 27 28 29 30 28 28 26 28 29 28 28 25 27 28 29
Wind_Direction
31 31 28 23 15 8 5 359 353 349 345 342 340 339 337 336 336 335 334 333 329 330 330 328 324 322 318 315 317 318 311 311 300 301 303 307 316 345 338 6 333 348 358
43 28 24 20 12 3 357 354 350 346 344 342 340 338 336 335 332 331 330 331 330 328 326 323 320 319 314 312 309 307 307 310 304 300 301 297 304 314 316 320 344 333 339
24 29 20 16 8 1 354 349 345 343 341 340 339 337 336 334 332 330 332 330 328 325 322 319 316 314 310 310 306 303 307 305 305 301 297 305 301 300 307 300 308 317 326
356 1 353 355 354 352 349 345 343 341 338 337 337 336 334 333 330 333 331 328 326 324 321 318 315 311 307 305 302 300 302 305 304 300 293 293 300 292 294 293 294 300 310
320 330 345 350 350 347 344 340 340 338 336 337 335 334 333 332 334 331 329 327 325 323 320 317 314 310 305 302 302 299 298 299 300 295 295 287 291 293 284 288 287 293 297
42 9 350 343 341 338 337 337 336 334 334 335 333 332 331 330 329 329 328 326 324 321 318 317 312 308 306 303 302 301 302 300 294 289 288 289 285 284 289 284 286 285 287
10 348 337 334 332 335 335 333 331 330 332 332 331 330 328 326 329 328 326 322 320 321 320 317 313 311 306 303 300 299 298 301 299 292 279 281 282 282 283 283 285 282 285
343 336 333 337 332 332 332 331 330 330 330 329 328 328 327 327 326 324 323 322 321 322 323 321 317 311 312 307 300 297 296 294 297 298 290 278 281 280 280 282 285 284 280
331 322 329 332 331 331 328 328 329 329 328 327 327 327 325 323 324 323 321 324 325 324 325 327 326 320 315 312 305 298 294 291 292 292 291 284 281 276 281 274 274 280 277
332 328 330 330 328 326 325 326 326 326 326 324 323 324 325 325 326 326 327 326 324 325 322 320 323 321 315 312 307 300 293 291 290 287 284 279 280 276 277 273 269 271 274
332 331 330 330 328 327 327 327 326 325 325 324 323 324 325 327 329 329 330 329 324 322 319 314 316 313 309 307 303 298 291 287 284 285 284 280 277 274 274 276 270 269 267
333 332 331 329 327 326 326 327 327 327 325 325 324 324 327 327 326 326 328 327 325 319 317 314 311 306 303 302 301 296 290 286 283 280 277 272 272 271 270 268 275 272 269
334 331 328 327 328 330 328 327 325 327 327 326 325 323 323 324 323 323 321 321 321 320 317 315 310 307 305 299 293 289 286 285 281 278 277 272 272 271 269 267 265 268 269
334 332 333 331 328 327 327 326 324 325 325 323 322 320 320 319 319 319 318 317 315 315 313 314 310 305 301 294 293 291 290 289 288 283 280 279 276 272 268 269 267 269 263
338 336 334 334 332 330 329 328 328 327 326 324 323 322 319 317 317 315 311 308 307 309 309 307 305 302 300 299 297 293 288 288 286 286 285 279 275 273 269 268 265 263 257
343 341 339 337 335 334 333 332 334 332 330 327 325 323 323 320 318 313 309 304 301 301 304 303 304 304 299 298 297 292 289 284 284 282 279 277 275 272 269 265 264 262 259
347 344 344 342 340 338 338 336 333 337 338 336 334 332 329 324 319 309 303 298 296 298 298 299 302 305 306 305 301 294 284 281 279 276 278 275 273 270 265 263 260 258 257
351 351 348 346 346 346 345 350 356 352 350 346 345 344 342 341 335 310 303 301 298 301 301 299 299 302 308 308 306 295 284 280 274 269 269 270 272 269 265 261 258 257 256
355 352 353 353 351 340 338 354 355 350 353 350 346 344 343 342 341 282 292 301 297 296 297 299 303 305 310 312 308 290 282 278 274 270 268 268 269 268 264 261 256 255 257
359 0 350 357 355 350 352 347 347 358 1 359 336 313 326 328 309 299 277 295 301 296 294 293 295 298 300 297 294 286 267 269 267 265 265 265 264 264 260 259 253 252 252
2 3 352 353 355 353 345 348 337 359 9 9 5 8 5 6 356 359 360 354 309 306 297 294 288 287 290 287 283 281 277 276 270 268 266 263 265 260 259 260 253 250 248
6 6 359 352 355 347 342 339 337 7 10 8 356 13 13 13 11 7 4 1 353 315 299 298 293 285 282 280 279 278 277 273 276 275 273 272 272 267 262 259 250 248 246
12 5 358 352 350 337 339 326 338 7 8 10 296 360 16 16 15 10 9 4 2 354 312 299 292 287 283 279 277 277 276 275 275 275 274 278 275 268 267 257 251 245 241
11 5 359 351 344 337 331 327 335 7 353 329 334 1 10 11 13 6 10 13 12 4 332 302 289 283 280 277 278 277 273 273 266 275 277 281 276 267 260 249 247 245 236
5 5 354 350 343 337 331 327 325 312 312 317 335 353 358 4 7 13 15 16 14 9 2 309 290 278 273 270 271 272 270 261 266 267 264 267 251 245 244 239 240 238 232
8 9 357 351 343 335 331 322 317 316 312 310 326 347 357 2 7 11 14 15 16 12 7 350 285 266 264 265 265 258 254 251 255 248 250 239 234 236 237 239 235 235 231